Regional Weather Roundup
Issued by NWS

Home | Current Version | Previous Version | Text Only | Print | Product List | Glossary On
Versions: 1 2 3 4 5 6 7 8 9 10 11 12 13 14 15 16 17 18 19 20 21 22 23 24 25 26 27 28 29 30 31 32 33 34 35 36 37 38 39 40 41 42 43 44 45 46 47 48 49 50
000
ASUS44 KLIX 260611
RWRLA
LOUISIANA WEATHER ROUNDUP
NATIONAL WEATHER SERVICE NEW ORLEANS LA
100 AM CDT SUN APR 26 2015

NOTE: "FAIR" INDICATES FEW OR NO CLOUDS BELOW 12,000 FEET WITH NO
      SIGNIFICANT WEATHER AND/OR OBSTRUCTIONS TO VISIBILITY.
      SKY/WX - SKY CONDITION AND SIGNIFICANT WEATHER.
      TMP - AIR TEMPERATURE.    DP   - DEWPOINT TEMPERATURE.
      RH  - RELATIVE HUMIDITY.  PRES - PRESSURE.
      HX  - HEAT INDEX.         WCI  - WIND CHILL INDEX.

*  THESE STATIONS ARE NOT NWS OR FAA STATIONS AND ARE NOT UNDER
   NWS QUALITY CONTROL.

LAZ040-048-061>063-065-066-069-260700-
SOUTHEAST LOUISIANA

CITY           SKY/WX    TMP DP  RH WIND       PRES   REMARKS
N.O. AUDUBON     N/A     70  69  99 MISG        N/A
6HR MIN TEMP:  69; 6HR MAX TEMP:  76;

N.O. INTL ARPT PTCLDY    69  65  86 CALM      29.75S
6HR MIN TEMP:  69; 6HR MAX TEMP:  75;

N.O. LAKEFRONT PTCLDY    73  67  81 CALM      29.76S
6HR MIN TEMP:  73; 6HR MAX TEMP:  79;

SLIDELL        PTCLDY    65  65 100 CALM      29.75S
6HR MIN TEMP:  65; 6HR MAX TEMP:  76;

BATON ROUGE    PTCLDY    67  66  97 W3        29.75S
6HR MIN TEMP:  67; 6HR MAX TEMP:  75;

BOOTHVILLE     MOCLDY    76  73  91 S8        29.76S
6HR MIN TEMP:  74; 6HR MAX TEMP:  77; 6HR PCP: TRACE;

BELLE CHASSE   CLEAR     66  64  93 CALM      29.74F FOG
6HR MIN TEMP:  65; 6HR MAX TEMP:  74;

BOGALUSA*      FOG       63  60  91 CALM      29.77S VSB 1/2
6HR MIN TEMP:  62; 6HR MAX TEMP:  74;

GALLIANO*      CLEAR     75  71  88 S5        29.76S
6HR MIN TEMP:  70; 6HR MAX TEMP:  76;

NEW ROADS*     FAIR      67  66  98 CALM      29.75S FOG
6HR MIN TEMP:  66; 6HR MAX TEMP:  76;

GONZALES*      FAIR     N/A N/A N/A CALM      29.74S
HAMMOND*       PTCLDY    66  63  88 CALM      29.77S
HOUMA*         CLEAR     71  70  96 S3        29.75F
6HR MIN TEMP:  67; 6HR MAX TEMP:  72;

PORT FOURCHON* CLEAR     77  73  88 S8        29.78F

$$

LAZ041-044-053-054-260700-
SOUTHWEST LOUISIANA

CITY           SKY/WX    TMP DP  RH WIND       PRES   REMARKS
LAKE CHARLES   PTCLDY    67  66  97 NW3       29.75S FOG
6HR MIN TEMP:  67; 6HR MAX TEMP:  77;

LAFAYETTE      PTCLDY    68  67  96 CALM      29.74F FOG
6HR MIN TEMP:  68; 6HR MAX TEMP:  77;

PATTERSON      PTCLDY    70  68  94 S5        29.76F
6HR MIN TEMP:  68; 6HR MAX TEMP:  73;

SALT POINT       N/A     73  71  93 CALM      29.73F
6HR MIN TEMP:  71; 6HR MAX TEMP:  75;

NEW IBERIA     FOG       68  66  93 CALM      29.75S VSB 1/2
6HR MIN TEMP:  67; 6HR MAX TEMP:  77;

CHENAULT AIRPK PTCLDY    68  68  99 CALM      29.76S
6HR MIN TEMP:  67; 6HR MAX TEMP:  78;


$$

LAZ027-028-260700-
CENTRAL LOUISIANA

CITY           SKY/WX    TMP DP  RH WIND       PRES   REMARKS
FORT POLK      PTCLDY    68  66  93 S6        29.74S
6HR MIN TEMP:  68; 6HR MAX TEMP:  79;

ALEXANDRIA INT CLEAR     70  67  90 SW6       29.72S
6HR MIN TEMP:  69; 6HR MAX TEMP:  78;

ALEXANDRIA     CLEAR     66  65  96 CALM      29.73S
6HR MIN TEMP:  66; 6HR MAX TEMP:  77;


$$

LAZ001-002-260700-
NORTHWEST LOUISIANA

CITY           SKY/WX    TMP DP  RH WIND       PRES   REMARKS
SHREVEPORT     CLEAR     65  56  72 CALM      29.69S
6HR MIN TEMP:  63; 6HR MAX TEMP:  84;

BARKSDALE AFB  CLEAR     61  57  86 SE5       29.69R
6HR MIN TEMP:  59; 6HR MAX TEMP:  86;

DTN SHREVEPORT CLEAR     63  56  78 SW3       29.69S
6HR MIN TEMP:  63; 6HR MAX TEMP:  84;


$$

LAZ014-016-260700-
NORTHEAST LOUISIANA

CITY           SKY/WX    TMP DP  RH WIND       PRES   REMARKS
MONROE         FAIR      70  67  90 SW9       29.71R
6HR MIN TEMP:  70; 6HR MAX TEMP:  81;

TALLULAH       CLEAR     70  66  87 SW6       29.71S
6HR MIN TEMP:  69; 6HR MAX TEMP:  78;


$$




USA.gov is the U.S. government's official web portal to all federal, state and local government web resources and services.